Regional Weather Roundup
Issued by NWS Charleston, SC

Current Version | Previous Version | Text Only | Print | Product List | Glossary Off
Versions: 1 2 3 4 5 6 7 8 9 10 11 12 13 14 15 16 17 18 19 20 21 22 23 24 25 26 27 28 29 30 31 32 33 34 35 36 37 38 39 40 41 42 43 44 45 46 47 48 49 50
000 ASUS42 KCHS 030912 RWRCHS REGIONAL WEATHER ROUNDUP NATIONAL WEATHER SERVICE CHARLESTON SC 500 AM EDT FRI JUL 03 2015 NOTE: "FAIR" INDICATES FEW OR NO CLOUDS BELOW 12,000 FEET WITH NO SIGNIFICANT WEATHER AND/OR OBSTRUCTIONS TO VISIBILITY. NOT ALL STATIONS ARE QUALITY CONTROLLED BY THE NATIONAL WEATHER SERVICE. USE DATA WITH CAUTION...ESPECIALLY DEWPOINT OBSERVATIONS. SCZ027-030-031-034>040-042>050-031000- ...SOUTHEAST SOUTH CAROLINA... CITY SKY/WX TMP DP RH WIND PRES REMARKS N CHARLESTON CLEAR 73 70 90 SW8 29.99S WATERFRONT PAR N/A 74 73 96 SW5 29.97R MOUNT PLEASANT LGT RAIN 73 72 94 SW7 29.99S JOHNS ISLAND FAIR 75 73 94 SW8 29.99S PINOPOLIS NOT AVBL MONCKS CORNER PTSUNNY 72 68 88 SW9 29.98S SUMMERVILLE FAIR 70 70 100 S6 29.99S BEAUFORT MCAS CLEAR 72 70 93 SW8 30.00S BEAUFORT ARPT FAIR 73 72 94 SW8 30.00S HILTON HEAD IS CLEAR 73 72 94 S7 30.02S WALTERBORO CLOUDY 70 68 94 SW8 30.00S ALLENDALE CLOUDY 72 70 94 VRB5 29.98S ...SOUTHERN MIDLANDS AND PEE DEE... CITY SKY/WX TMP DP RH WIND PRES REMARKS GEORGETOWN NOT AVBL KINGSTREE NOT AVBL ORANGEBURG CLOUDY 72 69 90 SW12 29.97S BARNWELL CLOUDY 72 72 100 SW9 29.99R THUNDER AIKEN NOT AVBL MANNING PTSUNNY 70 70 100 SW7 29.96S COLUMBIA CLOUDY 72 69 90 SW6 29.94R SUMTER CLOUDY 70 68 94 SW9 29.94R FLORENCE PTCLDY 70 68 93 SW5 29.95R MYRTLE BEACH CLOUDY 72 66 83 SW5 30.00R N MYRTLE BEACH CLOUDY 73 69 87 SW8 29.97R $$ GAZ063-065-086>088-099>101-113>116-118-119-134>141-150-031000- ...SOUTHEAST GEORGIA... CITY SKY/WX TMP DP RH WIND PRES REMARKS SAVANNAH ARPT PTCLDY 71 68 90 SW6 30.02S HUNTER AAF PTCLDY 72 71 96 SW9 30.00 FORT STEWART MOCLDY 71 69 93 S5 30.01R STATESBORO NOT AVBL SYLVANIA MOSUNNY 73 72 98 CALM 30.01S CLAXTON FAIR 70 70 100 CALM 30.02S ...CSRA...CENTRAL AND FAR SOUTHEAST GEORGIA... CITY SKY/WX TMP DP RH WIND PRES REMARKS THOMSON CLOUDY 73 73 97 CALM 30.01R VSB 1 AUGUSTA-BUSH LGT RAIN 73 70 90 SW10 29.96R AUGUSTA-DANIEL MOCLDY 73 70 90 S9 29.97R SWAINSBORO FAIR N/A N/A N/A SW3 30.01S VIDALIA MOCLDY 72 70 94 SW7 30.02S EASTMAN FAIR 73 73 100 SW5 30.03S HAZLEHURST FAIR 73 73 100 SW3 30.02S ALMA PTCLDY 71 69 93 SW5 30.03S WAYCROSS CLEAR 73 73 99 SW5 30.04S JESUP FAIR 72 70 94 CALM 30.04R BAXLEY FAIR 72 70 94 SW3 30.03R BRUNSWICK CLEAR 72 70 94 SW6 30.04F SAINT SIMONS CLEAR 73 71 93 SW9 30.04S $$ SCZ027-028-034-036>038-045-046-048>050-GAZ119-141-031000- ...LAKE AND SUPPLEMENTAL COASTAL OBSERVATIONS... STATION/POSITION TIME TEMP WIND PRES WAVE SWELL AIR SEA DIR/SP/G HT/PER HT/PER/DIR (UTC) (F) (DEG/KT/KT) (MB) (FT/S) (FT/S/D) UPR LAKE MARION NOT AVBL WINYAH BAY NOT AVBL LAKE MURRAY 0800 73 250/ 7/ 12 1013.5R ACE BASIN NERRS NOT AVBL FORT PULASKI 0800 74 84 230/ 7/ 11 1016.7R SAPELO ISLAND 0800 74 210/ 8 1017.0S $$ ANZ835-935-AMZ111-154-330-350-352-354-370-450-454-472-031000- ...C-MAN AND BUOY OBSERVATIONS... STATION/POSITION TIME TEMP WIND PRES WAVE SWELL AIR SEA DIR/SP/G HT/PER HT/PER/DIR (UTC) (F) (DEG/KT/KT) (MB) (FT/S) (FT/S/D) BUOY 41004 0850 79 81 230/ 19/ 21 1015.1R 5/ 6 2/13 BUOY 41008 0850 78 79 230/ 16/ 17 1017.1R 3/ 8 2/110/ 8 FOLLY BEACH CMAN 0800 77 230/ 12/ 15 1015.4S CAPERS NEARSHORE 0808 80 240/ 19/ 23 1016.3F FRIPP NEARSHORE NOT AVBL STATION/POSITION TIME TEMP WIND PRES WAVE SWELL AIR SEA DIR/SP/G HT/PER HT/PER/DIR (UTC) (F) (DEG/KT/KT) (MB) (FT/S) (FT/S/D) 5E ST. MARYS GA 0821 76 N/A 2/ 8 FRYING PAN BUOY 0850 79 79 220/ 19/ 23 1015.1R 5/ 7 2/170/10 BUOY 41025 0850 79 82 270/ 14/ 17 1012.4R 7/ 7 5/200/ 7 CAPE LOOKOUT NC 0800 76 280/ 8/ 10 1012.9R BUOY 41002 0850 82 80 230/ 19/ 23 1016.9F 6/ 7 BUOY 41010 0820 83 84 180/ 10/ 12 1018.2F ST AUGUSTINE FL 0900 74 73 230/ 6/ 7 1018.8R $$

USA.gov is the U.S. government's official web portal to all federal, state and local government web resources and services.